Weather History for San Jose, Costa Rica

Change the Weather History Date:

Sunday, May 25, 2014

  Actual Average Record
Temperature  
Mean Temperature 72 °F -  
Max Temperature 80 °F 80 °F 86 °F (1998)
Min Temperature 64 °F 65 °F 64 °F (2000)
Cooling Degree Days 7    
Growing Degree Days 22 (Base 50)    
Moisture  
Dew Point 64 °F    
Average Humidity 75    
Maximum Humidity 94    
Minimum Humidity 51    
Precipitation  
Precipitation 0.00 in 0.36 in - ()
Sea Level Pressure  
Sea Level Pressure 29.98 in    
Wind  
Wind Speed 5 mph ()    
Max Wind Speed 12 mph    
Max Gust Speed -    
Visibility 7.7 miles    
Events Fog , Rain    
Averages and records for this station are not official NWS values.
T = Trace of Precipitation, MM = Missing Value Source: Averaged Metar Reports

Daily Weather History Graph

Daily Weather History Graph

Search for Another Location

Airport:

Trip Planner

Search our weather history database for the weather conditions in past years. The results will help you decide how hot, cold, wet, or windy it might be!

Date:

Astronomy

May. 25, 2014 Rise Set
Actual Time 5:14 AM CST 5:53 PM CST
Civil Twilight 4:51 AM CST 6:15 PM CST
Nautical Twilight 4:25 AM CST 6:42 PM CST
Astronomical Twilight 3:58 AM CST 7:09 PM CST
Moon 2:43 AM CST 3:22 PM CST
Length of Visible Light 13h 23m
Length of Day
12h 38m
Waning Crescent, 10% of the Moon is Illuminated
May 25
Waning Crescent
May 28
New
Jun 5
First Quarter
Jun 12
Full
Jun 19
Last Quarter

Hourly Weather History & Observations

Time (CST) Temp. Heat Index Dew Point Humidity Pressure Visibility Wind Dir Wind Speed Gust Speed Precip Events Conditions
12:00 AM 67 °F - 61 °F 76% 29.88 in 12 mi NNE 4.6 mph - -  
12:00 AM 68.0 °F - 60.8 °F 78% 30.03 in - NNE 4.6 mph - N/A   Clear
1:00 AM 66.2 °F - 60.8 °F 83% 30.00 in - East 6.9 mph - N/A   Clear
2:00 AM 66.2 °F - 59.0 °F 78% 29.99 in - ENE 3.5 mph - N/A   Clear
3:00 AM 68 °F - 60 °F 68% 29.86 in 12 mi ENE 6.9 mph - -  
3:00 AM 68.0 °F - 60.8 °F 78% 29.97 in - ENE 6.9 mph - N/A   Clear
4:00 AM 66.2 °F - 59.0 °F 78% 29.97 in - NNE 6.9 mph - N/A   Clear
5:00 AM 66.2 °F - 59.0 °F 78% 29.98 in - ENE 6.9 mph - N/A   Clear
6:00 AM 69 °F - 60 °F 64% 29.86 in 12 mi NE 9.2 mph - -   Clear
6:00 AM 69.8 °F - 59.0 °F 68% 29.99 in - NE 9.2 mph - N/A   Clear
7:00 AM 73.4 °F - 60.8 °F 65% 30.01 in - ENE 8.1 mph - N/A   Clear
8:00 AM 73.4 °F - 62.6 °F 69% 30.02 in - East 8.1 mph - N/A   Clear
9:00 AM 78 °F - 63 °F 51% 29.88 in 12 mi WSW 3.5 mph - -   Scattered Clouds
9:00 AM 78.8 °F - 62.6 °F 57% 30.03 in 6.2 mi WSW 3.5 mph - N/A   Scattered Clouds
10:00 AM 80.6 °F 82.7 °F 66.2 °F 61% 30.03 in 6.2 mi WSW 5.8 mph - N/A   Scattered Clouds
11:00 AM 78.8 °F - 66.2 °F 65% 30.02 in 6.2 mi WSW 9.2 mph - N/A   Scattered Clouds
12:00 PM 78 °F - 66 °F 59% 29.88 in 12 mi SW 9.2 mph - -   Partly Cloudy
12:00 PM 78.8 °F - 66.2 °F 65% 30.01 in 6.2 mi SW 9.2 mph - N/A   Mostly Cloudy
1:00 PM 77.0 °F - 64.4 °F 65% 30.00 in 6.2 mi SSW 11.5 mph - N/A   Mostly Cloudy
2:00 PM 75.2 °F - 66.2 °F 73% 29.99 in 6.2 mi SW 6.9 mph - N/A   Mostly Cloudy
3:00 PM 74 °F - 69 °F 78% 29.86 in 6 mi WSW 4.6 mph - -   Overcast
3:00 PM 73.4 °F - 68.0 °F 83% 29.97 in 6.2 mi WSW 4.6 mph - N/A   Mostly Cloudy
4:00 PM 69.8 °F - 68.0 °F 94% 29.98 in 3.7 mi West 5.8 mph - N/A Fog , Rain Light Rain
5:00 PM 71.6 °F - 66.2 °F 83% 30.00 in 6.2 mi WNW 2.3 mph - N/A   Mostly Cloudy
6:00 PM 71.6 °F - 66.2 °F 83% 30.01 in 6.2 mi ESE 2.3 mph - N/A   Mostly Cloudy
7:00 PM 69.8 °F - 68.0 °F 94% 30.03 in 6.2 mi ENE 2.3 mph - N/A   Mostly Cloudy
8:00 PM 71.6 °F - 66.2 °F 83% 30.04 in 6.2 mi ENE 2.3 mph - N/A   Mostly Cloudy
9:00 PM 70 °F - 65 °F 80% 29.91 in 12 mi ENE 5.8 mph - -   Scattered Clouds
9:00 PM 69.8 °F - 64.4 °F 83% 30.06 in 6.2 mi ENE 5.8 mph - N/A   Mostly Cloudy
10:00 PM 69.8 °F - 64.4 °F 83% 30.07 in 6.2 mi ENE 4.6 mph - N/A   Mostly Cloudy
11:00 PM 68.0 °F - 64.4 °F 88% 30.07 in 6.2 mi ENE 3.5 mph - N/A   Scattered Clouds